User: anonymous   Login
Location: Caltech
(34.1382°N, 118.1253°W)
Time: 03:39:24
(UTC-07:00)
Language:

ERBS - Orbit

View from above orbital plane
View from above orbital plane
View from above satellite
View from above satellite

Ground track
Ground track

The orbit data is extracted from the following two-line orbital elements,

1 15354U 84108B   18198.47477271 +.00001485 +00000-0 +38142-4 0  9995
2 15354 057.0059 233.1026 0014483 123.4759 236.7683 15.46129103859025
Epoch (UTC): 17 July 2018 11:23:40
Eccentricity: 0.0014483
inclination: 57.0059°
perigee height: 418 km
apogee height: 438 km
right ascension of ascending node: 233.1026°
argument of perigee: 123.4759°
revolutions per day: 15.46129103
mean anomaly at epoch: 236.7683°
orbit number at epoch: 85902

The dashed part of the orbit path shows where the satellite is in the earth's shadow,  

DLR